Location: Unspecified
(50.1700°N, 6.8600°E)
Time: 13:54:01
(UTC+00:00)

Okean 3 Rocket - Pass Details

Date: 24 January 2019
Orbit: 615 x 645 km, 82.5° (Epoch: 18 February)

Event Time Altitude Azimuth Distance (km) Brightness Sun altitude
Exits shadow 05:37:32 - 346° (NNW) 2,718 6.6 -15.8°
Reaches altitude 10° 05:39:19 10° 344° (NNW) 2,001 5.9 -15.5°
Maximum altitude 05:43:41 61° 264° (W) 712 3.5 -14.8°
Drops below altitude 10° 05:48:03 10° 185° (S) 2,001 6.3 -14.1°
Sets 05:50:18 0° 181° (S) 2,908 7.2 -13.8°
